Lakeville, MN

4:36 AM CDT on September 23, 2017 (GMT -0500)
Airlake

Weather History for KLVN - November, 2011

Change the Weather History Date:

Wednesday, November 30, 2011

  Actual Average Record
Temperature  
Mean Temperature 28 °F -  
Max Temperature 39 °F 32 °F 57 °F (1962)
Min Temperature 17 °F 18 °F -15 °F (1964)
Degree Days  
Heating Degree Days 37    
Moisture  
Dew Point 16 °F    
Average Humidity 54    
Maximum Humidity 86    
Minimum Humidity 42    
Precipitation  
Precipitation 0.00 in - - ()
Sea Level Pressure  
Sea Level Pressure 29.95 in    
Wind  
Wind Speed 2 mph (SSW)    
Max Wind Speed 10 mph    
Max Gust Speed -    
Visibility 10 miles    
Events      
Averages and records for this station are not official NWS values.
T = Trace of Precipitation, MM = Missing Value Source: NWS Daily Summary

Daily Weather History Graph

Daily Weather History Graph

Search for Another Location

Airport or City:

Trip Planner

Search our weather history database for the weather conditions in past years. The results will help you decide how hot, cold, wet, or windy it might be!

Date:

Astronomy

Nov. 30, 2011 Rise Set
Actual Time 7:28 AM CST 4:34 PM CST
Civil Twilight 6:55 AM CST 5:07 PM CST
Nautical Twilight 6:19 AM CST 5:43 PM CST
Astronomical Twilight 5:44 AM CST 6:18 PM CST
Moon 11:39 AM CST (11/30) 10:40 PM CST (11/30)
Length of Visible Light 10h 11m
Length of Day
9h 06m
Waxing Crescent, 34% of the Moon is Illuminated
Nov 30
Waxing Crescent
Dec 2
First Quarter
Dec 10
Full
Dec 17
Last Quarter
Dec 24
New

Hourly Weather History & Observations

Time (CST) Temp. Windchill Dew Point Humidity Pressure Visibility Wind Dir Wind Speed Gust Speed Precip Events Conditions
12:10 AM 17.6 °F - 14.0 °F 86% 30.08 in 10.0 mi Calm Calm - N/A   Clear
12:30 AM 19.4 °F - 12.2 °F 74% 30.06 in 10.0 mi Calm Calm - N/A   Clear
12:50 AM 19.4 °F 14.3 °F 14.0 °F 80% 30.06 in 10.0 mi WSW 3.5 mph - N/A   Clear
1:10 AM 23.0 °F - 14.0 °F 68% 30.05 in 10.0 mi Calm Calm - N/A   Clear
1:50 AM 24.8 °F - 12.2 °F 59% 30.04 in 10.0 mi Calm Calm - N/A   Clear
2:10 AM 23.0 °F - 12.2 °F 63% 30.04 in 10.0 mi Calm Calm - N/A   Clear
2:30 AM 23.0 °F - 12.2 °F 63% 30.04 in 10.0 mi Calm Calm - N/A   Clear
2:50 AM 23.0 °F - 12.2 °F 63% 30.04 in 10.0 mi Calm Calm - N/A   Clear
3:10 AM 24.8 °F - 10.4 °F 54% 30.03 in 10.0 mi Calm Calm - N/A   Clear
3:30 AM 24.8 °F 20.5 °F 10.4 °F 54% 30.02 in 10.0 mi SW 3.5 mph - N/A   Clear
3:50 AM 24.8 °F - 12.2 °F 59% 30.01 in 10.0 mi Calm Calm - N/A   Clear
4:10 AM 24.8 °F - 10.4 °F 54% 30.01 in 10.0 mi Calm Calm - N/A   Clear
4:30 AM 24.8 °F - 10.4 °F 54% 30.00 in 10.0 mi Calm Calm - N/A   Clear
4:50 AM 24.8 °F - 10.4 °F 54% 30.00 in 10.0 mi Calm Calm - N/A   Clear
5:10 AM 26.6 °F - 10.4 °F 51% 29.99 in 10.0 mi Calm Calm - N/A   Clear
5:30 AM 23.0 °F 15.8 °F 10.4 °F 59% 29.98 in 10.0 mi South 5.8 mph - N/A   Clear
5:50 AM 23.0 °F 17.0 °F 10.4 °F 59% 29.97 in 10.0 mi SSW 4.6 mph - N/A   Clear
6:10 AM 24.8 °F 19.1 °F 12.2 °F 59% 29.96 in 10.0 mi South 4.6 mph - N/A   Clear
6:30 AM 24.8 °F 17.9 °F 12.2 °F 59% 29.95 in 10.0 mi South 5.8 mph - N/A   Clear
6:50 AM 24.8 °F 17.9 °F 12.2 °F 59% 29.95 in 10.0 mi South 5.8 mph - N/A   Clear
7:10 AM 24.8 °F 17.9 °F 12.2 °F 59% 29.94 in 10.0 mi South 5.8 mph - N/A   Clear
7:30 AM 24.8 °F 17.9 °F 12.2 °F 59% 29.94 in 10.0 mi SSW 5.8 mph - N/A   Clear
7:50 AM 26.6 °F 22.6 °F 12.2 °F 55% 29.93 in 10.0 mi South 3.5 mph - N/A   Clear
8:31 AM 28.4 °F 23.3 °F 14.0 °F 55% 29.93 in 10.0 mi South 4.6 mph - N/A   Clear
8:50 AM 30.2 °F 23.4 °F 15.8 °F 55% 29.93 in 10.0 mi SSW 6.9 mph - N/A   Clear
9:10 AM 30.2 °F 25.4 °F 15.8 °F 55% 29.93 in 10.0 mi SSW 4.6 mph - N/A   Clear
9:30 AM 35.6 °F 30.7 °F 17.6 °F 48% 29.93 in 10.0 mi SW 5.8 mph - N/A   Clear
9:50 AM 35.6 °F 31.7 °F 17.6 °F 48% 29.93 in 10.0 mi SW 4.6 mph - N/A   Clear
10:10 AM 37.4 °F 32.1 °F 17.6 °F 45% 29.93 in 10.0 mi SW 6.9 mph - N/A   Clear
10:30 AM 37.4 °F 32.1 °F 17.6 °F 45% 29.93 in 10.0 mi SW 6.9 mph - N/A   Clear
10:50 AM 37.4 °F 34.9 °F 17.6 °F 45% 29.93 in 10.0 mi SW 3.5 mph - N/A   Clear
11:10 AM 37.4 °F 32.1 °F 17.6 °F 45% 29.92 in 10.0 mi WSW 6.9 mph - N/A   Clear
11:50 AM 39.2 °F 32.5 °F 17.6 °F 42% 29.91 in 10.0 mi WSW 10.4 mph - N/A   Clear
12:10 PM 39.2 °F 34.2 °F 17.6 °F 42% 29.90 in 10.0 mi WSW 6.9 mph - N/A   Clear
12:30 PM 39.2 °F 35.9 °F 17.6 °F 42% 29.89 in 10.0 mi WSW 4.6 mph - N/A   Clear
12:50 PM 37.4 °F 31.4 °F 17.6 °F 45% 29.88 in 10.0 mi South 8.1 mph - N/A   Clear
1:10 PM 39.2 °F 35.9 °F 17.6 °F 42% 29.88 in 10.0 mi SSW 4.6 mph - N/A   Clear
1:30 PM 39.2 °F 35.0 °F 17.6 °F 42% 29.88 in 10.0 mi SSW 5.8 mph - N/A   Scattered Clouds
1:51 PM 39.2 °F 35.0 °F 17.6 °F 42% 29.88 in 10.0 mi SW 5.8 mph - N/A   Scattered Clouds
2:10 PM 39.2 °F - 19.4 °F 45% 29.88 in 10.0 mi Calm Calm - N/A   Clear
2:30 PM 39.2 °F 37.0 °F 19.4 °F 45% 29.88 in 10.0 mi SSW 3.5 mph - N/A   Clear
2:49 PM 39.2 °F - 19.4 °F 45% 29.88 in 10.0 mi Calm Calm - N/A   Clear
3:10 PM 39.2 °F - 19.4 °F 45% 29.89 in 10.0 mi Calm Calm - N/A   Clear
3:30 PM 39.2 °F - 19.4 °F 45% 29.89 in 10.0 mi Calm Calm - N/A   Clear
3:50 PM 37.4 °F - 21.2 °F 52% 29.89 in 10.0 mi Calm Calm - N/A   Clear
4:10 PM 37.4 °F 34.9 °F 23.0 °F 56% 29.89 in 10.0 mi East 3.5 mph - N/A   Clear
4:30 PM 35.6 °F - 21.2 °F 56% 29.90 in 10.0 mi Calm Calm - N/A   Clear
5:10 PM 35.6 °F - 23.0 °F 60% 29.91 in 10.0 mi Calm Calm - N/A   Overcast
5:30 PM 35.6 °F 32.8 °F 23.0 °F 60% 29.91 in 10.0 mi ESE 3.5 mph - N/A   Unknown
5:50 PM 35.6 °F - 23.0 °F 60% 29.92 in 10.0 mi Calm Calm - N/A   Scattered Clouds
6:10 PM 35.6 °F - 23.0 °F 60% 29.94 in 10.0 mi Calm Calm - N/A   Clear
6:30 PM 35.6 °F 32.8 °F 21.2 °F 56% 29.95 in 10.0 mi North 3.5 mph - N/A   Unknown
6:50 PM 35.6 °F 31.7 °F 21.2 °F 56% 29.95 in 10.0 mi North 4.6 mph - N/A   Unknown
7:10 PM 35.6 °F 32.8 °F 21.2 °F 56% 29.96 in 10.0 mi NE 3.5 mph - N/A   Clear
7:30 PM 35.6 °F 30.7 °F 21.2 °F 56% 29.96 in 10.0 mi NNE 5.8 mph - N/A   Clear
7:50 PM 35.6 °F - 21.2 °F 56% 29.97 in 10.0 mi Calm Calm - N/A   Clear
8:10 PM 35.6 °F 32.8 °F 21.2 °F 56% 29.97 in 10.0 mi NNE 3.5 mph - N/A   Scattered Clouds
8:30 PM 35.6 °F 32.8 °F 21.2 °F 56% 29.98 in 10.0 mi NE 3.5 mph - N/A   Clear
8:50 PM 33.8 °F 30.8 °F 21.2 °F 60% 29.98 in 10.0 mi NE 3.5 mph - N/A   Unknown
9:10 PM 33.8 °F 30.8 °F 21.2 °F 60% 29.99 in 10.0 mi North 3.5 mph - N/A   Unknown
9:30 PM 33.8 °F 30.8 °F 21.2 °F 60% 30.00 in 10.0 mi NNE 3.5 mph - N/A   Clear
9:50 PM 33.8 °F 29.6 °F 19.4 °F 56% 30.01 in 10.0 mi North 4.6 mph - N/A   Scattered Clouds
10:10 PM 33.8 °F 29.6 °F 21.2 °F 60% 30.02 in 10.0 mi NNE 4.6 mph - N/A   Scattered Clouds
10:30 PM 33.8 °F 27.0 °F 21.2 °F 60% 30.03 in 10.0 mi North 8.1 mph - N/A   Unknown
10:50 PM 33.8 °F 27.0 °F 24.8 °F 70% 30.04 in 10.0 mi North 8.1 mph - N/A   Unknown
11:10 PM 32.0 °F 24.8 °F 26.6 °F 80% 30.05 in 10.0 mi North 8.1 mph - N/A   Scattered Clouds
11:30 PM 32.0 °F 24.2 °F 26.6 °F 80% 30.06 in 10.0 mi North 9.2 mph - N/A   Mostly Cloudy
11:50 PM 30.2 °F 23.4 °F 26.6 °F 86% 30.07 in 10.0 mi North 6.9 mph - N/A   Overcast